Location: ???????
(55.8860°N, 38.0932°E)
Time: 09:11:17
(UTC+00:00)

Resurs 1-4 Rocket - Pass Details

Date: 14 April 2024
Orbit: 798 x 814 km, 98.7° (Epoch: 19 May)

Event Time Altitude Azimuth Distance (km) Brightness Sun altitude
Rises 01:34:17 0° 12° (NNE) 3,350 6.0 -7.2°
Reaches altitude 10° 01:37:09 10° 357° (N) 2,412 4.9 -6.9°
Maximum altitude 01:41:00 21° 311° (NW) 1,770 3.7 -6.4°
Drops below altitude 10° 01:44:49 10° 264° (W) 2,395 4.0 -5.9°
Enters shadow 01:45:54 - 257° (WSW) 2,723 4.2 -5.8°
